Stations météo

réclame
Mon MeteoGroup
Bordeaux/Merignac, France (7510): Température de l'air & dewpoint: 07.12.2017 04:00:00 - 13.12.2017 04:00:00 (CET)Bordeaux/Merignac, France (7510): Température de l'air 5cm: 07.12.2017 04:00:00 - 13.12.2017 04:00:00 (CET)Bordeaux/Merignac, France (7510): Température de l'air -20cm & Température de l'air -100cm: 07.12.2017 04:00:00 - 13.12.2017 04:00:00 (CET)Bordeaux/Merignac, France (7510): Vitesse du vent & gusts: 07.12.2017 04:00:00 - 13.12.2017 04:00:00 (CET)Bordeaux/Merignac, France (7510): Direction du vent: 07.12.2017 04:00:00 - 13.12.2017 04:00:00 (CET)Bordeaux/Merignac, France (7510): reduced air pressure: 07.12.2017 04:00:00 - 13.12.2017 04:00:00 (CET)Bordeaux/Merignac, France (7510): visibility: 07.12.2017 04:00:00 - 13.12.2017 04:00:00 (CET)Bordeaux/Merignac, France (7510): Ensoleillement: 07.12.2017 04:00:00 - 13.12.2017 04:00:00 (CET)Bordeaux/Merignac, France (7510): Quantités de précipitations: 07.12.2017 04:00:00 - 13.12.2017 04:00:00 (CET)
Date & Time tt [°C] td [°C] tt 5cm [°C] tt -20cm [°C] tt -100cm [°C] ff [km/h] ff [knt] fx [km/h] fx [knt] dd ppp [hPa] vv [km] sd [min] rr [mm]
13.12.2017 04:00:00 5,5 5,1 3,8 7,7 10,5 14 8 21 11 S 1019,9 20 0 0,0
13.12.2017 03:00:00 5,1 4,7 3,9 7,8 10,5 14 7 23 12 S 1020,2 20 0 0,0
13.12.2017 02:00:00 4,9 4,3 3,7 7,9 10,5 15 8 26 14 S 1019,8 34 0 0,0
13.12.2017 01:00:00 4,7 4,3 3,7 8,0 10,5 14 8 19 10 S 1020,6 11 0 0,0
13.12.2017 00:00:00 5,5 4,9 4,4 8,1 10,5 11 6 16 9 S 1020,8 12 0 0,0
12.12.2017 23:00:00 5,1 4,7 4,0 8,2 10,5 10 6 17 9 S 1020,8 11 0 0,4
12.12.2017 22:00:00 5,6 5,2 3,5 8,3 10,5 11 6 18 10 SW 1020,7 5 0 0,2
12.12.2017 21:00:00 4,9 4,3 3,3 8,5 10,5 11 6 17 9 SSW 1020,2 20 0 0,0
12.12.2017 20:00:00 5,7 5,0 4,1 8,6 10,5 13 7 19 10 S 1019,2 10 0 0,0
12.12.2017 19:00:00 6,0 5,1 4,5 8,7 10,6 5 3 10 5 SSW 1019,4 24 0 0,0
12.12.2017 18:00:00 7,2 5,7 5,8 8,7 10,5 2 1 25 13 WNW 1018,8 15 0 0,4
12.12.2017 17:00:00 7,4 4,2 6,7 8,7 10,6 11 6 26 14 S 1017,9 60 27 0,0
12.12.2017 16:00:00 9,1 4,7 8,7 8,6 10,5 15 8 31 17 SSW 1017,5 18 29 0,0
12.12.2017 15:00:00 10,4 5,0 13,3 8,3 10,6 11 6 19 10 SSW 1016,8 38 60 0,0
12.12.2017 14:00:00 10,0 4,6 12,5 8,0 10,6 12 6 21 11 SW 1017,1 36 60 0,0
12.12.2017 13:00:00 9,1 4,3 8,5 7,8 10,6 11 6 16 9 S 1017,0 45 60 0,0
12.12.2017 12:00:00 7,6 2,9 8,1 7,6 10,6 8 4 12 6 S 1017,0 34 60 0,0
12.12.2017 11:00:00 6,4 4,6 5,0 7,5 10,5 4 2 11 6 S 1016,9 20 60 0,0
12.12.2017 10:00:00 3,8 3,7 -0,4 7,7 10,6 8 4 10 5 S 1015,3 0,4 60 0,0
12.12.2017 09:00:00 0,6 0,3 -1,6 7,9 10,6 2 1 5 3 S 1014,7 3,0 4 0,0
12.12.2017 08:00:00 0,8 0,5 -1,2 8,1 10,6 3 2 8 4 S 1013,7 0,3 0 0,0
12.12.2017 07:00:00 1,7 1,3 -0,7 8,3 10,6 4 2 5 3 W 1012,4 0,4 0 0,0
12.12.2017 06:00:00 3,0 2,4 1,6 8,4 10,6 5 3 14 8 NNW 1011,3 38 0 0,0
12.12.2017 05:00:00 3,6 3,2 2,7 8,6 10,6 11 6 16 9 NW 1009,7 35 0 0,0
12.12.2017 04:00:00 3,8 3,4 2,6 8,7 10,5 9 5 14 8 NW 1008,3 39 0 0,0
12.12.2017 03:00:00 4,0 3,4 2,6 8,8 10,5 4 2 10 6 W 1007,1 30 0 0,0
12.12.2017 02:00:00 4,8 3,9 3,6 9,0 10,6 9 5 17 9 NNW 1005,8 46 0 0,0
12.12.2017 01:00:00 5,6 4,9 4,9 9,1 10,5 8 4 16 9 N 1004,4 54 0 0,0
12.12.2017 00:00:00 5,7 5,0 5,3 9,1 10,5 10 6 29 16 NW 1003,1 14 0 1,0
11.12.2017 23:00:00 6,3 5,7 5,7 9,2 10,5 8 5 14 7 W 1001,2 10 0 1,4
11.12.2017 22:00:00 6,5 5,6 5,7 9,3 10,5 8 4 21 11 NW 999,1 15 0 0,0
11.12.2017 21:00:00 6,8 5,9 5,9 9,4 10,5 10 6 21 11 N 997,7 17 0 1,5
11.12.2017 20:00:00 7,6 7,2 6,7 9,5 10,5 9 5 22 12 W 996,0 7 0 0,8
11.12.2017 19:00:00 7,6 6,8 7,1 9,5 10,5 13 7 23 12 W 994,1 10 0 2,0
11.12.2017 18:00:00 7,6 7,0 7,1 9,6 10,5 9 5 22 12 WSW 992,0 17 0 2,0
11.12.2017 17:00:00 7,7 6,6 7,2 9,7 10,5 12 6 20 11 WSW 990,1 32 0 0,6
11.12.2017 16:00:00 7,8 6,9 7,4 9,7 10,4 12 6 33 18 W 988,9 6 0 2,6
11.12.2017 15:00:00 8,7 7,3 7,8 9,7 10,4 33 18 57 31 WSW 987,6 6 0 0,4
11.12.2017 14:00:00 9,5 7,3 8,5 9,6 10,4 24 13 45 24 WNW 986,6 10 11 0,6
11.12.2017 13:00:00 10,8 8,0 8,7 9,5 10,4 23 13 54 29 WSW 986,3 19 13 0,4
11.12.2017 12:00:00 10,1 8,4 6,4 9,5 10,4 21 12 50 27 SW 986,2 12 17 2,3
11.12.2017 11:00:00 8,8 6,8 7,4 9,6 10,4 24 13 65 35 SW 985,9 20 0 1,2
11.12.2017 10:00:00 8,6 6,6 7,2 9,7 10,4 18 10 45 24 SW 985,2 20 0 1,0
11.12.2017 09:00:00 9,5 6,9 8,1 9,7 10,4 23 13 58 31 WSW 984,2 20 0 0,2
11.12.2017 08:00:00 10,1 6,2 8,0 9,8 10,3 30 16 50 27 WSW 983,3 15 0 0,0
11.12.2017 07:00:00 10,5 6,3 8,8 9,9 10,3 26 14 49 26 W 982,7 10 0 0,0
11.12.2017 06:00:00 10,3 7,0 8,7 10,0 10,3 27 15 50 27 WSW 981,9 14 0 0,0
11.12.2017 05:00:00 9,8 8,1 8,7 10,0 10,3 24 13 51 28 SW 981,4 33 0 0,4
11.12.2017 04:00:00 10,1 9,2 9,4 10,0 10,3 31 17 54 29 SW 981,0 10 0 2,2
11.12.2017 03:00:00 10,8 10,0 10,1 10,0 10,3 28 15 69 37 WSW 980,5 6 0 2,6
11.12.2017 02:00:00 11,6 10,5 10,6 10,0 10,3 26 14 47 26 S 978,5 11 0 0,4
11.12.2017 01:00:00 11,1 10,5 10,5 10,1 10,2 26 14 44 24 SSE 980,1 10 0 1,0
11.12.2017 00:00:00 10,9 10,6 10,6 10,0 10,2 19 10 32 18 SSE 982,1 19 0 1,2
10.12.2017 23:00:00 10,9 10,6 10,6 10,1 10,2 23 13 39 21 S 984,2 3,9 0 2,3
10.12.2017 22:00:00 11,1 10,8 10,4 10,1 10,2 19 10 34 18 S 987,6 9 0 2,2
10.12.2017 21:00:00 10,8 10,3 10,3 10,1 10,2 17 9 32 17 S 989,0 13 0 2,2
10.12.2017 20:00:00 11,1 10,6 10,6 10,2 10,2 16 9 32 18 SSW 991,9 5 0 1,4
10.12.2017 19:00:00 11,1 10,6 10,4 10,2 10,1 11 6 31 17 SSW 992,9 10 0 1,6
10.12.2017 18:00:00 11,3 10,5 10,4 10,2 10,2 21 12 51 28 SW 994,8 7 0 3,2
10.12.2017 17:00:00 11,4 10,9 10,5 10,3 10,1 15 8 39 21 W 996,0 9 0 2,1
10.12.2017 16:00:00 11,3 10,0 10,4 10,3 10,1 26 14 51 28 WSW 997,3 10 0 3,8
10.12.2017 15:00:00 12,0 10,7 11,0 10,2 10,1 30 16 53 29 WSW 998,4 5 0 2,2
10.12.2017 14:00:00 12,9 11,5 11,8 10,1 10,1 29 15 57 31 W 999,2 3,4 0 3,0
10.12.2017 13:00:00 13,4 12,9 12,8 10,0 10,1 26 14 58 32 W 1000,2 3,9 0 3,9
10.12.2017 12:00:00 13,6 12,8 12,7 9,8 10,1 37 20 67 36 WSW 1000,4 15 0 1,6
10.12.2017 11:00:00 13,2 12,6 12,2 9,7 10,1 39 21 74 40 WSW 1000,7 3,9 0 2,8
10.12.2017 10:00:00 12,7 11,9 12,2 9,5 10,1 44 24 74 40 SW 1000,9 4,6 0 5,5
10.12.2017 09:00:00 13,5 12,9 12,9 9,2 10,1 46 25 67 36 WSW 1001,8 3,8 0 4,2
10.12.2017 08:00:00 13,6 13,0 13,0 9,0 10,1 34 18 69 37 WSW 1002,5 4,4 0 1,6
10.12.2017 07:00:00 14,3 13,3 13,5 8,8 10,1 40 22 73 39 W 1003,7 14 0 0,2
10.12.2017 06:00:00 14,4 13,8 13,8 8,5 10,1 44 24 69 38 W 1004,4 7 0 1,4
10.12.2017 05:00:00 14,3 14,0 13,7 8,2 10,1 32 17 54 29 W 1004,8 1,6 0 2,0
10.12.2017 04:00:00 14,2 13,9 13,3 7,9 10,1 29 16 51 28 W 1006,1 4,6 0 0,4
10.12.2017 03:00:00 13,7 13,7 7,1 7,8 10,1 29 16 43 23 W 1006,6 2,4 0 1,3
10.12.2017 02:00:00 7,0 7,0 6,1 7,8 10,1 5 3 20 11 - 1007,9 3,4 0 2,8
10.12.2017 01:00:00 6,1 6,0 5,5 7,9 10,1 13 7 26 14 SSE 1009,3 2,0 0 1,2
10.12.2017 00:00:00 5,7 5,4 5,2 7,9 10,1 16 9 31 17 SSE 1011,0 11 0 0,2
09.12.2017 23:00:00 5,6 5,0 5,2 7,9 10,1 19 10 37 20 SSE 1012,5 4,6 0 0,4
09.12.2017 22:00:00 6,0 4,8 5,4 8,0 10,1 22 12 37 20 SSE 1013,5 7 0 1,0
09.12.2017 21:00:00 6,2 4,7 5,5 8,0 10,1 16 9 27 15 SSE 1015,4 10 0 0,4
09.12.2017 20:00:00 6,5 4,8 5,7 8,0 10,1 12 7 22 12 SSE 1016,8 20 0 0,0
09.12.2017 19:00:00 7,0 4,5 6,1 8,1 10,1 14 8 21 12 SSE 1017,7 20 0 0,0
09.12.2017 18:00:00 7,0 4,3 6,5 8,1 10,1 11 6 20 11 SSE 1019,0 10 0 0,0
09.12.2017 17:00:00 7,4 3,8 7,2 8,0 10,1 11 6 18 10 SSE 1020,2 49 0 0,0
09.12.2017 16:00:00 8,0 3,8 8,1 8,0 10,1 13 7 22 12 S 1021,2 60 0 0,0
09.12.2017 15:00:00 8,3 4,3 9,0 7,8 10,1 11 6 27 15 S 1022,2 50 22 0,0
09.12.2017 14:00:00 8,3 3,5 8,9 7,6 10,1 13 7 21 11 S 1023,5 49 6 0,0
09.12.2017 13:00:00 7,7 2,6 8,3 7,4 10,1 12 7 19 11 S 1024,7 55 10 0,0
09.12.2017 12:00:00 7,4 2,1 7,0 7,2 10,1 14 7 19 10 S 1025,6 50 31 0,0
09.12.2017 11:00:00 6,3 2,6 4,7 7,2 10,1 9 5 14 8 S 1026,2 48 2 0,0
09.12.2017 10:00:00 4,4 2,1 2,3 7,2 10,1 8 4 12 7 S 1026,4 32 11 0,0
09.12.2017 09:00:00 2,5 1,8 -0,4 7,4 10,1 9 5 11 6 SW 1026,7 13 5 0,0
09.12.2017 08:00:00 2,7 1,7 -0,1 7,5 10,1 4 2 6 3 SSW 1026,7 4,2 0 0,0
09.12.2017 07:00:00 3,7 2,7 1,6 7,5 10,1 4 2 5 3 WSW 1026,6 20 0 0,0
09.12.2017 06:00:00 3,7 2,4 1,9 7,6 10,1 5 3 8 4 WSW 1026,6 37 0 0,0
09.12.2017 05:00:00 4,1 2,8 3,6 7,7 10,1 10 5 12 7 W 1026,8 43 0 0,0
09.12.2017 04:00:00 3,7 3,1 1,4 7,8 10,1 6 3 9 5 W 1027,1 15 0 0,0
09.12.2017 03:00:00 3,8 3,1 2,3 7,8 10,0 5 3 7 4 SW 1027,2 13 0 0,0
09.12.2017 02:00:00 4,4 3,5 3,6 7,9 10,1 0 0 10 5 N 1027,3 19 0 0,0
09.12.2017 01:00:00 4,6 3,9 3,7 8,0 10,0 6 4 8 5 WSW 1027,3 12 0 0,0
09.12.2017 00:00:00 4,3 3,6 2,9 8,1 10,0 0 0 8 4 N 1027,5 11 0 0,0
08.12.2017 23:00:00 4,8 3,8 3,8 8,2 10,0 0 0 14 7 N 1027,7 9 0 0,0
08.12.2017 22:00:00 4,7 4,0 2,2 8,3 10,0 8 4 12 6 WNW 1027,5 5 0 0,0
08.12.2017 21:00:00 4,8 3,9 2,7 8,5 10,0 8 4 22 12 WNW 1027,4 10 0 0,0
08.12.2017 20:00:00 5,0 4,0 2,9 8,7 10,0 10 5 24 13 NNW 1027,3 22 0 0,0
08.12.2017 19:00:00 6,0 4,6 4,1 8,8 10,0 9 5 15 8 WNW 1026,7 10 0 0,0
08.12.2017 18:00:00 6,3 5,4 4,5 9,0 10,0 10 5 15 8 WNW 1026,4 26 0 0,0
08.12.2017 17:00:00 7,1 5,6 5,4 9,0 10,0 4 2 42 23 W 1026,1 17 11 1,6
08.12.2017 16:00:00 10,0 6,3 10,5 8,9 10,0 14 8 21 11 WNW 1025,8 58 45 0,0
08.12.2017 15:00:00 10,4 6,7 10,3 8,7 10,0 12 7 20 11 NW 1025,5 20 55 0,0
08.12.2017 14:00:00 9,2 7,6 8,4 8,6 9,9 9 5 16 8 W 1026,0 20 9 0,2
08.12.2017 13:00:00 8,8 7,1 8,6 8,5 9,9 12 6 21 11 W 1026,9 15 0 0,0
08.12.2017 12:00:00 8,7 6,8 8,1 8,4 9,9 8 4 15 8 W 1026,9 16 1 0,2
08.12.2017 11:00:00 8,7 6,8 7,4 8,4 9,9 4 2 11 6 WSW 1026,6 18 0 0,2
08.12.2017 10:00:00 8,3 6,4 7,5 8,4 9,9 11 6 17 9 NW 1026,1 13 0 0,0
08.12.2017 09:00:00 8,0 6,3 6,8 8,5 9,9 8 4 11 6 WSW 1025,2 15 0 0,0
08.12.2017 08:00:00 8,1 6,2 6,9 8,5 9,9 4 2 14 8 W 1024,5 15 0 0,0
08.12.2017 07:00:00 8,4 6,2 7,6 8,5 9,9 7 4 19 10 N 1024,2 16 0 0,0
08.12.2017 06:00:00 8,9 6,9 8,1 8,6 9,9 9 5 16 9 NNW 1023,6 17 0 0,0
08.12.2017 05:00:00 9,1 7,5 8,4 8,5 9,9 7 4 16 8 WNW 1023,2 19 0 0,0
08.12.2017 04:00:00 9,8 8,6 9,0 8,5 9,9 10 6 21 11 NNW 1023,0 44 0 0,0
08.12.2017 03:00:00 10,6 10,0 10,0 8,4 9,9 10 5 21 11 NW 1022,5 6 0 0,0
08.12.2017 02:00:00 11,0 9,7 10,2 8,3 9,9 16 9 40 22 NNW 1022,0 60 0 0,6
08.12.2017 01:00:00 12,6 12,1 12,1 8,1 9,9 28 15 44 24 WNW 1021,4 1,1 0 3,7
08.12.2017 00:00:00 12,5 12,2 11,7 7,9 9,9 27 15 39 21 WSW 1021,5 10 0 2,8
07.12.2017 23:00:00 12,1 11,8 10,4 7,8 9,9 26 14 43 23 WSW 1021,6 3,8 0 1,0
07.12.2017 22:00:00 10,9 10,6 10,0 7,6 9,9 23 13 34 19 SSW 1022,0 4,4 0 0,2
07.12.2017 21:00:00 10,3 10,0 9,6 7,5 9,9 18 10 31 17 SSW 1022,7 9 0 0,6
07.12.2017 20:00:00 10,0 9,5 9,3 7,5 9,9 20 11 32 17 SSW 1023,1 6 0 0,2
07.12.2017 19:00:00 9,9 9,1 9,0 7,4 9,9 17 9 33 18 SSW 1023,6 15 0 1,8
07.12.2017 18:00:00 9,7 8,8 9,0 7,3 9,9 14 7 23 12 SSW 1023,6 17 0 0,0
07.12.2017 17:00:00 9,8 9,0 9,1 7,1 9,9 15 8 22 12 S 1023,8 16 0 0,6
07.12.2017 16:00:00 10,6 7,5 9,1 6,9 10,0 15 8 22 12 SW 1024,4 11 0 0,0
07.12.2017 15:00:00 11,4 5,7 11,8 6,7 10,0 14 7 22 12 S 1024,5 54 2 0,0
07.12.2017 14:00:00 9,5 4,9 9,3 6,4 9,9 11 6 19 11 S 1025,4 10 1 0,0
07.12.2017 13:00:00 7,4 4,0 6,7 6,2 10,0 11 6 19 10 S 1026,4 28 4 0,0
07.12.2017 12:00:00 4,9 2,8 4,1 6,1 10,0 11 6 17 9 S 1027,5 10 10 0,0
07.12.2017 11:00:00 3,2 2,5 2,6 6,0 10,0 11 6 19 11 SSE 1028,3 13 0 0,0
07.12.2017 10:00:00 2,2 1,8 1,7 6,0 10,0 11 6 21 11 SE 1028,4 10 0 0,0
07.12.2017 09:00:00 1,4 1,1 1,4 6,0 10,0 14 8 21 11 SE 1028,4 8 0 0,0
07.12.2017 08:00:00 1,4 1,4 1,4 6,0 10,0 10 5 18 10 SE 1028,8 4,1 0 0,0
07.12.2017 07:00:00 1,7 1,7 1,7 6,0 10,0 11 6 17 9 SE 1028,8 4,5 0 0,0
07.12.2017 06:00:00 1,6 1,6 1,4 6,1 10,0 8 5 18 10 SE 1028,8 5 0 0,0
07.12.2017 05:00:00 1,6 1,6 1,7 6,1 10,0 10 6 15 8 SE 1029,4 6 0 0,0
07.12.2017 04:00:00 1,5 1,5 1,6 6,1 10,0 11 6 17 9 SE 1029,5 6 0 0,0

tt = Température de l'air
td = dewpoint
tt 5cm = Température de l'air 5cm
tt -20cm = Température de l'air -20cm
tt -100cm = Température de l'air -100cm
ff = Vitesse du vent
fx = gusts
dd = Direction du vent
ppp = reduced air pressure
vv = visibility
sd = Ensoleillement
rr = Quantités de précipitations

stations d'obs. à proximité